When you browse on this site, cookies collect data to enhance your experience and personalize the content and advertising you see.
Visit our Privacy Policy to learn more. By continuing to use the site, you agree to this use of cookies and data.
  • In Belgium
  • List of Countries
  • For 7 days
  • Water Temperature
  • Weather Map
  • Weather Widgets
  • user-avatar
    Login

    Hourly Weather Lemnos

    Today, 23 January, Thursday

    Time Temperature Precipitation Wind Pressure Humidity
    00:00 +8°C° 0 mm 2 mps 764 mmHg 60%
    01:00 +8°C° 0 mm 2 mps 764 mmHg 59%
    02:00 +8°C° 0 mm 3 mps 763 mmHg 59%
    03:00 +8°C° 0 mm 3 mps 763 mmHg 58%
    04:00 +9°C° 0 mm 3 mps 762 mmHg 58%
    05:00 +9°C° 0 mm 3 mps 762 mmHg 57%
    06:00 +8°C° 0 mm 4 mps 762 mmHg 60%
    07:00 +9°C° 0 mm 6 mps 763 mmHg 62%
    08:00 +10°C° 0 mm 8 mps 764 mmHg 64%
    09:00 +8°C° 0 mm 10 mps 765 mmHg 63%
    10:00 +7°C° 0 mm 13 mps 766 mmHg 62%
    11:00 +5°C° 0 mm 16 mps 767 mmHg 61%
    12:00 +6°C° 0 mm 15 mps 767 mmHg 61%
    13:00 +6°C° 0 mm 14 mps 768 mmHg 60%
    14:00 +7°C° 0 mm 12 mps 768 mmHg 59%
    15:00 +7°C° 0 mm 12 mps 769 mmHg 57%
    16:00 +7°C° 0 mm 12 mps 769 mmHg 54%
    17:00 +7°C° 0 mm 11 mps 770 mmHg 52%
    18:00 +7°C° 0 mm 10 mps 770 mmHg 52%
    19:00 +6°C° 0 mm 10 mps 770 mmHg 52%
    20:00 +6°C° 0 mm 9 mps 771 mmHg 53%
    21:00 +6°C° 0 mm 8 mps 771 mmHg 51%
    22:00 +6°C° 0 mm 7 mps 771 mmHg 50%
    23:00 +6°C° 0 mm 7 mps 771 mmHg 49%

    Tomorrow, 24 January, Friday

    Time Temperature Precipitation Wind Pressure Humidity
    00:00 +7°C° 0 mm 6 mps 771 mmHg 49%
    01:00 +6°C° 0 mm 5 mps 772 mmHg 49%
    02:00 +6°C° 0 mm 5 mps 772 mmHg 49%
    03:00 +6°C° 0 mm 5 mps 771 mmHg 51%
    04:00 +6°C° 0 mm 4 mps 771 mmHg 53%
    05:00 +6°C° 0 mm 4 mps 771 mmHg 54%
    06:00 +6°C° 0 mm 4 mps 771 mmHg 55%
    07:00 +6°C° 0 mm 4 mps 771 mmHg 56%
    08:00 +5°C° 0 mm 3 mps 772 mmHg 57%
    09:00 +7°C° 0 mm 3 mps 772 mmHg 55%
    10:00 +7°C° 0 mm 2 mps 772 mmHg 54%
    11:00 +8°C° 0 mm 2 mps 772 mmHg 53%
    12:00 +8°C° 0 mm 2 mps 771 mmHg 53%
    13:00 +9°C° 0 mm 1 mps 771 mmHg 52%
    14:00 +10°C° 0 mm 1 mps 770 mmHg 51%
    15:00 +9°C° 0 mm 2 mps 770 mmHg 53%
    16:00 +9°C° 0 mm 2 mps 770 mmHg 55%
    17:00 +9°C° 0 mm 2 mps 769 mmHg 57%
    18:00 +8°C° 0 mm 2 mps 769 mmHg 59%
    19:00 +8°C° 0 mm 2 mps 769 mmHg 60%
    20:00 +7°C° 0 mm 2 mps 769 mmHg 62%
    21:00 +8°C° 0 mm 2 mps 769 mmHg 62%
    22:00 +8°C° 0 mm 2 mps 769 mmHg 63%
    23:00 +8°C° 0 mm 3 mps 768 mmHg 63%

    Day after tomorrow, 25 January, Saturday

    Time Temperature Precipitation Wind Pressure Humidity
    00:00 +8°C° 0 mm 3 mps 768 mmHg 64%
    01:00 +8°C° 0 mm 3 mps 768 mmHg 64%
    02:00 +8°C° 0 mm 3 mps 767 mmHg 65%
    03:00 +8°C° 0 mm 3 mps 767 mmHg 66%
    04:00 +8°C° 0 mm 3 mps 767 mmHg 67%
    05:00 +7°C° 0 mm 4 mps 766 mmHg 68%
    06:00 +7°C° 0 mm 4 mps 766 mmHg 70%
    07:00 +7°C° 0 mm 4 mps 766 mmHg 71%
    08:00 +8°C° 0 mm 4 mps 766 mmHg 73%
    09:00 +9°C° 0 mm 5 mps 767 mmHg 71%
    10:00 +10°C° 0 mm 5 mps 767 mmHg 68%
    11:00 +10°C° 0 mm 5 mps 767 mmHg 66%
    12:00 +12°C° 0 mm 5 mps 766 mmHg 66%
    13:00 +12°C° 0 mm 5 mps 766 mmHg 66%
    14:00 +12°C° 0 mm 5 mps 765 mmHg 65%
    15:00 +12°C° 0 mm 5 mps 765 mmHg 66%
    16:00 +12°C° 0 mm 5 mps 765 mmHg 67%
    17:00 +10°C° 0 mm 5 mps 765 mmHg 68%
    18:00 +10°C° 0 mm 5 mps 765 mmHg 70%
    19:00 +10°C° 0 mm 5 mps 765 mmHg 72%
    20:00 +10°C° 0 mm 5 mps 765 mmHg 74%
    21:00 +10°C° 0 mm 5 mps 765 mmHg 76%
    22:00 +12°C° 0 mm 4 mps 765 mmHg 77%
    23:00 +12°C° 0 mm 4 mps 765 mmHg 79%

    26 January, Sunday

    Time Temperature Precipitation Wind Pressure Humidity
    00:00 +12°C° 0 mm 4 mps 765 mmHg 79%
    01:00 +12°C° 0 mm 3 mps 765 mmHg 79%
    02:00 +12°C° 0 mm 3 mps 765 mmHg 78%
    03:00 +13°C° 0 mm 2 mps 764 mmHg 77%
    04:00 +12°C° 0 mm 2 mps 764 mmHg 76%
    05:00 +12°C° 0 mm 2 mps 764 mmHg 75%
    06:00 +12°C° 0 mm 2 mps 764 mmHg 75%
    07:00 +12°C° 0 mm 1 mps 765 mmHg 74%
    08:00 +12°C° 0 mm 1 mps 765 mmHg 74%
    09:00 +12°C° 0 mm 1 mps 765 mmHg 73%
    10:00 +13°C° 0 mm 1 mps 765 mmHg 73%
    11:00 +14°C° 0 mm 1 mps 765 mmHg 72%
    12:00 +14°C° 0 mm 1 mps 765 mmHg 73%
    13:00 +14°C° 0 mm 2 mps 764 mmHg 73%
    14:00 +14°C° 0 mm 2 mps 764 mmHg 74%
    15:00 +14°C° 0 mm 2 mps 764 mmHg 76%
    16:00 +14°C° 0 mm 2 mps 764 mmHg 78%
    17:00 +14°C° 0 mm 2 mps 764 mmHg 81%
    18:00 +14°C° 0 mm 2 mps 764 mmHg 81%
    19:00 +14°C° 0 mm 2 mps 764 mmHg 81%
    20:00 +14°C° 0 mm 2 mps 764 mmHg 81%
    21:00 +14°C° 0 mm 2 mps 764 mmHg 80%
    22:00 +14°C° 0 mm 2 mps 764 mmHg 79%
    23:00 +14°C° 0 mm 2 mps 764 mmHg 78%

    27 January, Monday

    Time Temperature Precipitation Wind Pressure Humidity
    00:00 +14°C° 0 mm 2 mps 764 mmHg 78%
    01:00 +14°C° 0 mm 2 mps 763 mmHg 78%
    02:00 +14°C° 0 mm 2 mps 763 mmHg 78%
    03:00 +13°C° 0 mm 2 mps 763 mmHg 79%
    04:00 +13°C° 0 mm 2 mps 763 mmHg 79%
    05:00 +13°C° 0 mm 1 mps 762 mmHg 80%
    06:00 +13°C° 0 mm 1 mps 762 mmHg 80%
    07:00 +13°C° 0 mm 1 mps 762 mmHg 81%
    08:00 +13°C° 0 mm 1 mps 762 mmHg 81%
    09:00 +14°C° 0 mm 2 mps 762 mmHg 81%
    10:00 +15°C° 0 mm 2 mps 763 mmHg 80%
    11:00 +16°C° 0 mm 2 mps 763 mmHg 79%
    12:00 +16°C° 0 mm 3 mps 762 mmHg 78%
    13:00 +16°C° 0 mm 3 mps 762 mmHg 78%
    14:00 +15°C° 0 mm 4 mps 761 mmHg 77%
    15:00 +15°C° 0.1 mm 4 mps 761 mmHg 78%
    16:00 +15°C° 0.1 mm 5 mps 761 mmHg 80%
    17:00 +14°C° 0.1 mm 5 mps 760 mmHg 81%
    18:00 +14°C° 0.5 mm 5 mps 760 mmHg 81%
    19:00 +14°C° 0.5 mm 6 mps 760 mmHg 81%
    20:00 +14°C° 0.5 mm 6 mps 760 mmHg 81%
    21:00 +14°C° 0.6 mm 6 mps 760 mmHg 80%
    22:00 +14°C° 0.6 mm 6 mps 761 mmHg 79%
    23:00 +14°C° 0.6 mm 6 mps 761 mmHg 78%

    28 January, Tuesday

    Time Temperature Precipitation Wind Pressure Humidity
    00:00 +14°C° 0.2 mm 6 mps 760 mmHg 78%
    01:00 +14°C° 0.2 mm 5 mps 760 mmHg 78%
    02:00 +13°C° 0.2 mm 4 mps 760 mmHg 79%
    03:00 +13°C° 0.3 mm 4 mps 760 mmHg 81%
    04:00 +12°C° 0.3 mm 4 mps 760 mmHg 84%
    05:00 +12°C° 0.3 mm 4 mps 760 mmHg 87%
    06:00 +12°C° 0.6 mm 5 mps 760 mmHg 89%
    07:00 +12°C° 0.6 mm 5 mps 761 mmHg 90%
    08:00 +11°C° 0.6 mm 6 mps 761 mmHg 92%
    09:00 +11°C° 0.7 mm 7 mps 761 mmHg 92%
    10:00 +11°C° 0.7 mm 7 mps 761 mmHg 91%
    11:00 +11°C° 0.7 mm 8 mps 762 mmHg 90%
    12:00 +11°C° 0.2 mm 8 mps 761 mmHg 90%
    13:00 +11°C° 0.2 mm 8 mps 761 mmHg 89%
    14:00 +11°C° 0.2 mm 8 mps 761 mmHg 89%
    15:00 +11°C° 0 mm 7 mps 761 mmHg 88%
    16:00 +11°C° 0 mm 7 mps 761 mmHg 87%
    17:00 +11°C° 0 mm 6 mps 761 mmHg 85%
    18:00 +11°C° 0 mm 6 mps 761 mmHg 86%
    19:00 +11°C° 0 mm 6 mps 762 mmHg 86%
    20:00 +11°C° 0 mm 6 mps 762 mmHg 86%
    21:00 +12°C° 0 mm 5 mps 762 mmHg 86%
    22:00 +12°C° 0 mm 5 mps 762 mmHg 86%
    23:00 +12°C° 0 mm 5 mps 762 mmHg 86%
    Show more